Weather History for Greensboro, GA

Change the Weather History Date:

Monday, October 8, 2012

  Actual Average (KDBN) Record (KDBN)
Temperature  
Mean Temperature 56 °F -  
Max Temperature 60 °F 81 °F 95 °F (1941)
Min Temperature 53 °F 52 °F 34 °F (1987)
Degree Days  
Heating Degree Days 8    
Growing Degree Days 6 (Base 50)    
Moisture  
Dew Point 51 °F    
Average Humidity 79    
Maximum Humidity 94    
Minimum Humidity 68    
Precipitation  
Precipitation 0.00 in - - ()
Sea Level Pressure  
Sea Level Pressure 30.08 in    
Wind  
Wind Speed 1 mph (NNE)    
Max Wind Speed 6 mph    
Max Gust Speed -    
Visibility 10 miles    
Events      
Averages and records for this station are not official NWS values.
T = Trace of Precipitation, MM = Missing Value Source: NWS Daily Summary

Daily Weather History Graph

Daily Weather History Graph

Search for Another Location

Airport:

Trip Planner

Search our weather history database for the weather conditions in past years. The results will help you decide how hot, cold, wet, or windy it might be!

Date:

Astronomy

Oct. 08, 2012 Rise Set
Actual Time 7:32 AM EDT 7:07 PM EDT
Civil Twilight 7:07 AM EDT 7:31 PM EDT
Nautical Twilight 6:38 AM EDT 8:00 PM EDT
Astronomical Twilight 6:09 AM EDT 8:29 PM EDT
Moon 12:29 AM EDT (10/8) 2:38 PM EDT (10/8)
Length of Visible Light 12h 24m
Length of Day
11h 34m
Waning Gibbous, 46% of the Moon is Illuminated
Oct 8
Waning Gibbous
Oct 15
New
Oct 21
First Quarter
Oct 29
Full
Nov 6
Last Quarter

Hourly Weather History & Observations

Time (EDT) Temp. Dew Point Humidity Pressure Visibility Wind Dir Wind Speed Gust Speed Precip Events Conditions
12:15 AM 55.4 °F 53.6 °F 94% 30.05 in 10.0 mi Calm Calm - N/A   Clear
12:35 AM 55.4 °F 53.6 °F 94% 30.05 in 10.0 mi Calm Calm - N/A   Clear
12:55 AM 55.4 °F 53.6 °F 94% 30.04 in 10.0 mi Calm Calm - N/A   Mostly Cloudy
1:15 AM 57.2 °F 53.6 °F 88% 30.04 in 10.0 mi Calm Calm - N/A   Overcast
1:35 AM 59.0 °F 53.6 °F 82% 30.04 in 10.0 mi Calm Calm - N/A   Overcast
1:55 AM 59.0 °F 53.6 °F 82% 30.05 in 10.0 mi Calm Calm - N/A   Overcast
2:15 AM 59.0 °F 55.4 °F 88% 30.04 in 10.0 mi NE 3.5 mph - N/A   Overcast
2:35 AM 59.0 °F 55.4 °F 88% 30.04 in 10.0 mi Calm Calm - N/A   Overcast
2:55 AM 59.0 °F 53.6 °F 82% 30.03 in 10.0 mi NE 3.5 mph - N/A   Overcast
3:15 AM 59.0 °F 51.8 °F 77% 30.02 in 10.0 mi NE 4.6 mph - N/A   Overcast
3:35 AM 59.0 °F 51.8 °F 77% 30.03 in 10.0 mi NE 4.6 mph - N/A   Overcast
3:55 AM 59.0 °F 51.8 °F 77% 30.03 in 10.0 mi Calm Calm - N/A   Overcast
4:15 AM 59.0 °F 51.8 °F 77% 30.05 in 10.0 mi Calm Calm - N/A   Overcast
4:35 AM 59.0 °F 51.8 °F 77% 30.05 in 10.0 mi Calm Calm - N/A   Overcast
4:55 AM 59.0 °F 51.8 °F 77% 30.05 in 10.0 mi NNE 3.5 mph - N/A   Overcast
5:15 AM 59.0 °F 51.8 °F 77% 30.05 in 10.0 mi Calm Calm - N/A   Overcast
5:35 AM 57.2 °F 51.8 °F 82% 30.05 in 10.0 mi Calm Calm - N/A   Overcast
5:55 AM 57.2 °F 51.8 °F 82% 30.05 in 10.0 mi Calm Calm - N/A   Overcast
6:15 AM 57.2 °F 51.8 °F 82% 30.05 in 10.0 mi Calm Calm - N/A   Overcast
6:35 AM 57.2 °F 51.8 °F 82% 30.06 in 10.0 mi NNE 3.5 mph - N/A   Overcast
6:55 AM 57.2 °F 51.8 °F 82% 30.06 in 10.0 mi Calm Calm - N/A   Overcast
7:15 AM 57.2 °F 51.8 °F 82% 30.07 in 10.0 mi Calm Calm - N/A   Overcast
7:35 AM 57.2 °F 50.0 °F 77% 30.07 in 10.0 mi ENE 3.5 mph - N/A   Overcast
7:55 AM 57.2 °F 50.0 °F 77% 30.07 in 10.0 mi NE 3.5 mph - N/A   Overcast
8:15 AM 57.2 °F 50.0 °F 77% 30.07 in 10.0 mi Calm Calm - N/A   Overcast
8:35 AM 57.2 °F 50.0 °F 77% 30.07 in 10.0 mi NNE 4.6 mph - N/A   Overcast
8:55 AM 57.2 °F 50.0 °F 77% 30.09 in 10.0 mi Calm Calm - N/A   Overcast
9:15 AM 57.2 °F 50.0 °F 77% 30.10 in 10.0 mi Calm Calm - N/A   Overcast
9:35 AM 57.2 °F 50.0 °F 77% 30.10 in 10.0 mi Calm Calm - N/A   Overcast
9:55 AM 59.0 °F 50.0 °F 72% 30.10 in 10.0 mi Calm Calm - N/A   Overcast
10:15 AM 59.0 °F 50.0 °F 72% 30.11 in 10.0 mi NE 3.5 mph - N/A   Overcast
10:35 AM 59.0 °F 50.0 °F 72% 30.11 in 10.0 mi Calm Calm - N/A   Overcast
10:55 AM 59.0 °F 50.0 °F 72% 30.12 in 10.0 mi North 3.5 mph - N/A   Overcast
11:15 AM 59.0 °F 50.0 °F 72% 30.12 in 10.0 mi NNE 3.5 mph - N/A   Overcast
11:35 AM 59.0 °F 50.0 °F 72% 30.13 in 10.0 mi Calm Calm - N/A   Overcast
11:55 AM 59.0 °F 50.0 °F 72% 30.12 in 10.0 mi North 5.8 mph - N/A   Overcast
12:15 PM 59.0 °F 51.8 °F 77% 30.11 in 10.0 mi North 3.5 mph - N/A   Overcast
12:35 PM 60.8 °F 51.8 °F 72% 30.10 in 10.0 mi NE 3.5 mph - N/A   Overcast
12:55 PM 60.8 °F 51.8 °F 72% 30.11 in 10.0 mi Calm Calm - N/A   Overcast
1:15 PM 60.8 °F 51.8 °F 72% 30.10 in 10.0 mi Calm Calm - N/A   Overcast
1:55 PM 60.8 °F 51.8 °F 72% 30.08 in 10.0 mi Calm Calm - N/A   Overcast
2:15 PM 60.8 °F 51.8 °F 72% 30.08 in 10.0 mi Calm Calm - N/A   Overcast
2:35 PM 60.8 °F 51.8 °F 72% 30.07 in 10.0 mi North 3.5 mph - N/A   Overcast
2:55 PM 60.8 °F 51.8 °F 72% 30.07 in 10.0 mi Calm Calm - N/A   Overcast
3:15 PM 59.0 °F 51.8 °F 77% 30.07 in 10.0 mi North 4.6 mph - N/A   Overcast
3:35 PM 59.0 °F 51.8 °F 77% 30.07 in 10.0 mi North 3.5 mph - N/A   Overcast
4:15 PM 59.0 °F 50.0 °F 72% 30.07 in 10.0 mi Calm Calm - N/A   Overcast
4:35 PM 60.8 °F 50.0 °F 68% 30.06 in 10.0 mi Calm Calm - N/A   Overcast
4:55 PM 59.0 °F 50.0 °F 72% 30.07 in 10.0 mi NNW 3.5 mph - N/A   Overcast
5:15 PM 59.0 °F 50.0 °F 72% 30.07 in 10.0 mi NNE 3.5 mph - N/A   Overcast
5:35 PM 59.0 °F 50.0 °F 72% 30.07 in 10.0 mi North 3.5 mph - N/A   Overcast
5:55 PM 59.0 °F 50.0 °F 72% 30.07 in 10.0 mi Calm Calm - N/A   Overcast
6:15 PM 59.0 °F 50.0 °F 72% 30.07 in 10.0 mi Calm Calm - N/A   Overcast
6:35 PM 57.2 °F 50.0 °F 77% 30.08 in 10.0 mi Calm Calm - N/A   Overcast
6:55 PM 57.2 °F 50.0 °F 77% 30.09 in 10.0 mi Calm Calm - N/A   Overcast
7:15 PM 55.4 °F 50.0 °F 82% 30.09 in 10.0 mi Calm Calm - N/A   Overcast
7:35 PM 55.4 °F 50.0 °F 82% 30.09 in 10.0 mi Calm Calm - N/A   Overcast
7:55 PM 55.4 °F 50.0 °F 82% 30.09 in 10.0 mi Calm Calm - N/A   Overcast
8:35 PM 55.4 °F 50.0 °F 82% 30.09 in 10.0 mi Calm Calm - N/A   Overcast
9:15 PM 53.6 °F 50.0 °F 88% 30.10 in 10.0 mi Calm Calm - N/A   Overcast
10:15 PM 53.6 °F 50.0 °F 88% 30.12 in 10.0 mi Calm Calm - N/A   Overcast
10:55 PM 53.6 °F 50.0 °F 88% 30.12 in 10.0 mi Calm Calm - N/A   Overcast
11:15 PM 53.6 °F 50.0 °F 88% 30.12 in 10.0 mi Calm Calm - N/A   Overcast
11:35 PM 53.6 °F 50.0 °F 88% 30.12 in 10.0 mi Calm Calm - N/A   Overcast
11:55 PM 53.6 °F 50.0 °F 88% 30.12 in 10.0 mi Calm Calm - N/A   Overcast